Cloud_Cover
0 0 0 0 0 0 0 0 0 0 3 100 100 100 100 100 100 100 100 100 54 100 100 100 75 6 5 4 12 68 100 100 87 99 100 85 100 5 24 99 99 100 100 46
0 0 0 0 0 0 0 0 0 0 0 0 1 7 18 6 34 100 100 100 100 100 100 100 100 43 5 85 30 66 100 100 93 85 99 35 37 61 100 100 83 61 84 99
0 0 0 0 0 0 0 0 0 0 0 0 0 0 0 0 0 0 59 100 100 100 100 100 100 100 88 57 29 100 100 100 100 22 20 5 82 99 100 25 93 76 60 100
0 0 0 0 0 3 1 0 0 28 87 4 4 0 0 0 0 0 0 1 17 12 100 100 78 100 98 77 100 100 100 100 100 88 17 89 99 100 100 72 100 100 100 100
0 59 10 0 0 0 0 8 26 11 21 4 2 10 0 0 0 0 0 0 0 0 0 0 68 0 4 69 95 100 100 100 100 100 100 84 100 100 97 71 100 100 90 99
31 1 2 4 0 23 5 23 92 57 45 1 0 0 0 0 0 0 0 0 0 0 0 0 0 0 5 5 5 93 100 100 100 100 100 100 100 91 87 71 93 30 99 100
0 0 1 4 0 100 70 30 83 74 7 2 0 60 0 0 0 0 0 0 0 0 0 0 18 0 0 0 0 0 2 42 100 100 100 100 100 74 45 32 100 100 27 77
0 0 0 42 9 19 91 68 92 100 41 4 0 1 0 0 0 0 0 0 0 0 0 0 0 0 0 1 0 0 0 0 39 100 100 100 100 79 35 100 8 5 60 23
3 0 0 1 1 10 2 11 51 13 0 22 0 0 0 2 11 6 0 0 31 100 0 0 0 0 0 0 0 0 0 0 0 0 0 21 30 0 0 5 5 74 100 1
5 29 0 91 55 6 92 62 33 68 86 74 4 0 5 12 27 0 0 43 100 100 74 40 5 4 0 0 0 0 0 27 0 0 5 3 0 0 0 0 29 100 49 4
61 25 0 0 64 3 3 27 100 89 100 100 54 84 87 86 97 12 95 100 83 51 90 98 5 0 0 0 0 0 0 0 36 40 0 0 0 0 0 15 99 46 49 97
5 34 19 4 27 11 4 3 85 27 27 99 100 88 100 100 100 100 100 100 100 76 100 100 89 20 0 0 0 0 0 0 64 5 1 0 0 0 26 5 8 100 100 100
33 47 82 80 0 5 4 86 74 100 27 100 100 100 100 100 100 100 100 100 100 100 100 94 84 0 0 0 0 0 0 0 0 96 1 1 0 2 8 11 100 92 100 67
100 100 100 97 82 3 5 8 6 13 46 100 100 100 100 100 100 100 100 100 100 100 100 95 69 0 0 0 0 0 0 0 0 5 95 59 92 100 81 100 100 100 90 5
100 91 69 100 100 76 8 7 55 53 30 100 100 100 100 100 100 100 100 100 100 100 99 100 3 0 0 0 0 0 0 0 0 20 93 84 100 94 100 92 100 100 49 2
100 100 100 78 93 100 98 100 100 100 98 100 100 100 100 100 100 100 100 100 100 100 100 100 2 0 100 82 30 4 0 0 2 41 100 100 100 100 100 100 100 51 2 0
100 99 100 100 92 65 13 15 97 18 78 98 100 100 100 100 100 100 100 100 57 97 100 30 0 0 6 45 96 97 98 80 92 100 98 87 100 93 100 100 75 3 0 39
98 100 100 100 60 68 90 100 92 100 100 52 96 100 100 100 100 100 100 100 100 96 84 0 0 0 90 100 100 100 100 100 94 59 98 100 100 100 100 100 7 29 0 100
100 100 100 100 100 94 12 100 96 41 78 94 98 100 100 100 100 100 100 100 100 79 14 0 1 0 100 100 100 100 100 100 100 100 95 7 3 13 11 0 95 98 0 79
100 100 100 100 100 87 99 33 70 83 95 99 100 100 100 57 49 20 6 35 5 12 0 0 3 3 100 100 100 100 100 95 100 50 7 0 0 4 0 8 21 0 26 9
100 100 100 100 100 100 100 22 5 68 6 100 78 100 100 100 100 100 10 5 0 0 1 0 0 38 100 100 100 100 100 100 92 3 0 0 93 100 53 8 0 0 2 0
96 100 100 100 100 99 100 100 76 3 88 5 93 64 73 95 100 59 12 1 1 0 0 0 0 40 100 100 100 100 100 100 64 0 3 98 100 44 100 6 0 0 2 0
87 100 100 100 100 100 100 100 100 100 97 95 35 21 63 5 100 100 5 0 0 0 0 0 0 67 100 100 100 100 100 71 32 1 94 100 75 0 3 4 27 6 4 1
100 100 100 100 99 100 100 100 100 97 100 100 100 5 89 100 98 82 100 23 0 0 0 0 0 69 100 100 100 100 100 80 46 8 52 48 0 0 0 12 66 4 32 84
97 98 100 100 100 100 100 100 100 100 100 100 100 97 100 100 69 96 99 2 1 0 0 0 0 99 100 100 100 100 100 28 46 64 28 32 0 0 46 89 64 30 50 21
87 100 100 100 100 100 100 100 100 100 100 100 100 100 100 100 87 69 71 17 0 0 0 0 0 0 34 96 93 83 88 0 39 98 1 0 0 0 18 45 100 100 96 100